GW0821 Weather Reports


time (UTC)temp
C
wind
direction
speed
KPH
gust
KPH
rain 1hr
cm
rain 24hr
cm
rain mn
cm
humidity
%
barometer
mb
20260906061553 18 0 0.0 3.2 0.00 0.00 0.00 69 1021.3
20260906060108 18 0 0.0 0.0 0.00 0.00 0.00 70 1021.1
20260906054554 18 0 0.0 1.6 0.00 0.00 0.00 69 1021.0
20260906053048 18 149 0.0 1.6 0.00 0.00 0.00 69 1020.9
20260906051553 18 219 0.0 3.2 0.00 0.00 0.00 69 1021.0
20260906050110 19 0 0.0 0.0 0.00 0.00 0.00 69 1020.9
20260906044549 19 0 0.0 1.6 0.00 0.00 0.00 68 1020.9
20260906043100 20 0 0.0 4.8 0.00 0.00 0.00 69 1021.0
20260906041550 20 12 0.0 3.2 0.00 0.00 0.00 70 1021.0
20260906040055 20 0 0.0 3.2 0.00 0.00 0.00 70 1021.0
20260906034557 19 0 0.0 4.8 0.00 0.00 0.00 68 1021.1
20260906033056 19 0 0.0 0.0 0.00 0.00 0.00 68 1021.2
20260906031613 19 0 0.0 0.0 0.00 0.00 0.00 69 1021.4
20260906030051 19 0 0.0 0.0 0.00 0.00 0.00 67 1021.4
20260906024603 19 0 0.0 0.0 0.00 0.00 0.00 67 1021.5
20260906023106 19 0 0.0 0.0 0.00 0.00 0.00 67 1021.4
20260906021551 19 0 0.0 0.0 0.00 0.00 0.00 67 1021.4
20260906020101 19 0 0.0 0.0 0.00 0.00 0.00 67 1021.4
20260906014554 19 0 0.0 0.0 0.00 0.00 0.00 67 1021.4
20260906013050 20 0 0.0 0.0 0.00 0.00 0.00 65 1021.5
20260906011553 20 0 0.0 0.0 0.00 0.00 0.00 64 1021.6
20260906004558 20 0 0.0 0.0 0.00 0.00 0.00 66 1021.7
20260906003055 20 0 0.0 0.0 0.00 0.00 0.00 67 1021.8
20260906001551 20 0 0.0 0.0 0.00 0.00 0.00 66 1021.8
20260906000052 20 0 0.0 0.0 0.00 0.00 0.00 66 1021.8
20260905234556 21 0 0.0 0.0 0.00 0.00 0.00 66 1021.9
20260905233056 21 0 0.0 0.0 0.00 0.00 0.00 66 1022.0
20260905231552 21 0 0.0 0.0 0.00 0.00 0.00 66 1022.1
20260905230047 21 0 0.0 0.0 0.00 0.00 0.00 65 1022.3
20260905224553 21 0 0.0 0.0 0.00 0.00 0.00 64 1022.2
20260905223051 21 0 0.0 0.0 0.00 0.00 0.00 65 1022.2
20260905221602 22 0 0.0 0.0 0.00 0.00 0.00 64 1022.2
20260905220056 22 0 0.0 1.6 0.00 0.00 0.00 64 1022.1
20260905214602 22 0 0.0 0.0 0.00 0.00 0.00 64 1022.1
20260905213048 22 0 0.0 4.8 0.00 0.00 0.00 64 1022.1
20260905211555 22 0 0.0 0.0 0.00 0.00 0.00 63 1022.2
20260905210103 23 0 0.0 0.0 0.00 0.00 0.00 62 1022.2
20260905204546 23 0 0.0 0.0 0.00 0.00 0.00 62 1022.2
20260905203053 23 0 0.0 0.0 0.00 0.00 0.00 60 1022.2
20260905201552 24 0 0.0 0.0 0.00 0.00 0.00 59 1022.2
20260905200113 24 0 0.0 0.0 0.00 0.00 0.00 58 1022.1
20260905194548 25 0 0.0 0.0 0.00 0.00 0.00 57 1022.1
20260905193051 25 0 0.0 0.0 0.00 0.00 0.00 56 1022.1
20260905191548 26 0 0.0 0.0 0.00 0.00 0.00 54 1022.1
20260905190054 26 0 0.0 0.0 0.00 0.00 0.00 52 1021.9
20260905184551 27 0 0.0 0.0 0.00 0.00 0.00 50 1021.8
20260905183053 27 0 0.0 0.0 0.00 0.00 0.00 49 1021.7
20260905181554 28 0 0.0 0.0 0.00 0.00 0.00 46 1021.7
20260905180426 28 0 1.6 6.4 0.00 0.00 0.00 46 1021.5
20260905174555 29 0 0.0 9.7 0.00 0.00 0.00 44 1021.4
20260905173112 30 160 3.2 11.3 0.00 0.00 0.00 43 1021.4
20260905171554 31 111 6.4 12.9 0.00 0.00 0.00 42 1021.3
20260905170049 31 137 6.4 14.5 0.00 0.00 0.00 41 1021.1
20260905164602 31 165 4.8 16.1 0.00 0.00 0.00 40 1021.0
20260905163052 32 183 8.0 14.5 0.00 0.00 0.00 39 1020.9
20260905161601 32 157 8.0 17.7 0.00 0.00 0.00 39 1020.9
20260905160100 32 160 6.4 12.9 0.00 0.00 0.00 38 1021.0
20260905154555 32 153 8.0 19.3 0.00 0.00 0.00 38 1020.9
20260905153100 32 166 8.0 20.9 0.00 0.00 0.00 38 1021.0
20260905150055 33 139 9.7 19.3 0.00 0.00 0.00 36 1021.1
20260905144550 33 290 8.0 20.9 0.00 0.00 0.00 35 1021.0
20260905143049 33 154 8.0 22.5 0.00 0.00 0.00 35 1021.2
20260905141559 34 160 8.0 17.7 0.00 0.00 0.00 34 1021.2
20260905140100 33 126 6.4 27.4 0.00 0.00 0.00 34 1021.2
20260905134558 33 191 4.8 19.3 0.00 0.00 0.00 34 1021.2
20260905133050 33 223 6.4 20.9 0.00 0.00 0.00 34 1021.4
20260905131555 33 113 8.0 24.1 0.00 0.00 0.00 34 1021.5
20260905130054 33 196 8.0 19.3 0.00 0.00 0.00 34 1021.5
20260905124601 33 238 8.0 20.9 0.00 0.00 0.00 34 1021.5
20260905123050 33 136 9.7 19.3 0.00 0.00 0.00 33 1021.7
20260905121556 33 222 9.7 19.3 0.00 0.00 0.00 34 1021.6
20260905114608 33 160 6.4 20.9 0.00 0.00 0.00 34 1021.7
20260905113056 33 215 8.0 16.1 0.00 0.00 0.00 34 1021.7
20260905111634 33 158 8.0 19.3 0.00 0.00 0.00 34 1021.7
20260905110046 33 215 6.4 19.3 0.00 0.00 0.00 35 1021.7
20260905104555 33 140 4.8 14.5 0.00 0.00 0.00 35 1021.7
20260905103051 33 179 6.4 14.5 0.00 0.00 0.00 35 1021.9
20260905101549 33 224 4.8 16.1 0.00 0.00 0.00 35 1021.8
20260905100101 33 198 8.0 14.5 0.00 0.00 0.00 34 1021.9
20260905094551 32 269 4.8 12.9 0.00 0.00 0.00 35 1021.9
20260905093107 31 141 0.0 3.2 0.00 0.00 0.00 43 1021.9
20260905091553 30 298 3.2 6.4 0.00 0.00 0.00 47 1022.1
20260905090057 29 241 1.6 6.4 0.00 0.00 0.00 51 1022.0
20260905084554 28 0 3.2 12.9 0.00 0.00 0.00 54 1021.9
20260905083049 27 10 3.2 9.7 0.00 0.00 0.00 55 1022.0
20260905081548 26 99 4.8 14.5 0.00 0.00 0.00 57 1021.9
20260905080049 25 78 3.2 11.3 0.00 0.00 0.00 61 1021.9
20260905074548 24 61 3.2 11.3 0.00 0.00 0.00 65 1021.9
20260905073056 23 41 6.4 11.3 0.00 0.00 0.00 68 1021.9
20260905071552 22 96 0.0 3.2 0.00 0.00 0.00 72 1021.8
20260905070055 21 0 0.0 0.0 0.00 0.00 0.00 73 1021.9
20260905064629 21 0 0.0 0.0 0.00 0.00 0.00 76 1021.8
20260905063058 20 0 0.0 0.0 0.00 0.00 0.00 79 1021.7